Starlink 4044

operational
NORAD ID: 52662 Int'l Des: 2022-053 Owner: SPXS Country: US Constellation: starlink
LEOCIRCULAR

Starlink 4044について

説明を読み込み中...

リアルタイム位置

3D地球を読み込み中...

次回通過

高度履歴

Altitude vs Time

uPlot chart will show altitude changes over time

軌道要素

1 52662U 22053G 25256.61679763 -.00000452 00000-0 -10303-4 0 9992
2 52662 53.2168 229.0310 0001417 88.4777 271.6378 15.08835715184313
Epoch: Sep 13, 2025 • Age: 42 hours

現在のステータス

高度 545.1 km
速度 7.60 km/s
衛星直下点 52.28°N, 155.99°W
打ち上げ日 May 18, 2022
運用期間 3.3 years
タイプ internet

技術仕様

分類 Payload
質量 297.00 kg
乾燥質量 275.00 kg
総質量 297.00 kg
長さ 0.20 m
直径 2.80 m
スパン 9.00 m
形状 Box + pan
製造者 SPXS
バスタイプ Starlink
フェーズステータス In Orbit
所有者/国 SPXS/US

大規模コンステレーション

Loading constellations...